Victoria, British Columbia

12:53 PM PDT on April 27, 2017 (GMT -0700)
Victoria International

Weather History for CYYJ - September, 2013

Change the Weather History Date:

Tuesday, September 24, 2013

  Actual Average Record
Temperature  
Mean Temperature 51 °F -  
Max Temperature 57 °F 59 °F 78 °F (1997)
Min Temperature 45 °F 43 °F 39 °F (2005)
Degree Days  
Heating Degree Days 14    
Growing Degree Days 1 (Base 50)    
Moisture  
Dew Point 48 °F    
Average Humidity 87    
Maximum Humidity 100    
Minimum Humidity 72    
Precipitation  
Precipitation 0.16 in 0.09 in - ()
Sea Level Pressure  
Sea Level Pressure 29.90 in    
Wind  
Wind Speed 4 mph ()    
Max Wind Speed 10 mph    
Max Gust Speed -    
Visibility 17.7 miles    
Events Rain    
Averages and records for this station are not official NWS values.
T = Trace of Precipitation, MM = Missing Value Source: Averaged Metar Reports

Daily Weather History Graph

Daily Weather History Graph

Search for Another Location

Airport or City:

Trip Planner

Search our weather history database for the weather conditions in past years. The results will help you decide how hot, cold, wet, or windy it might be!

Date:

Astronomy

Sep. 24, 2013 Rise Set
Actual Time 7:03 AM PDT 7:06 PM PDT
Civil Twilight 6:32 AM PDT 7:37 PM PDT
Nautical Twilight 5:55 AM PDT 8:14 PM PDT
Astronomical Twilight 5:17 AM PDT 8:52 PM PDT
Moon 10:03 PM PDT (9/24) 12:48 PM PDT (9/24)
Length of Visible Light 13h 05m
Length of Day
12h 02m
Waning Gibbous, 72% of the Moon is Illuminated
Sep 24
Waning Gibbous
Sep 26
Last Quarter
Oct 4
New
Oct 11
First Quarter
Oct 18
Full

Hourly Weather History & Observations

Time (PDT) Temp. Dew Point Humidity Pressure Visibility Wind Dir Wind Speed Gust Speed Precip Events Conditions
12:00 AM 51.8 °F 44.6 °F 76% 29.95 in 30.0 mi WNW 4.6 mph - N/A   Mostly Cloudy
1:00 AM 50.0 °F 44.6 °F 82% 29.94 in 30.0 mi SSE 3.5 mph - N/A   Mostly Cloudy
2:00 AM 50.0 °F 46.4 °F 87% 29.94 in 30.0 mi Calm Calm - N/A   Mostly Cloudy
3:00 AM 48.2 °F 44.6 °F 87% 29.94 in 30.0 mi Calm Calm - N/A   Mostly Cloudy
3:04 AM 48.2 °F 44.6 °F 87% 29.94 in 30.0 mi Calm Calm - N/A Rain Light Rain Showers
3:25 AM 50.0 °F 46.4 °F 87% 29.94 in 15.0 mi SSE 4.6 mph - N/A   Mostly Cloudy
3:38 AM 50.0 °F 46.4 °F 87% 29.94 in 15.0 mi SE 6.9 mph - N/A Rain Light Rain Showers
4:00 AM 50.0 °F 46.4 °F 87% 29.94 in 15.0 mi SSW 2.3 mph - N/A Rain Light Rain Showers
5:00 AM 51 °F 48 °F 84% 29.93 in 15 mi SSE 3.5 mph - - Rain Light Rain Showers
5:00 AM 51.8 °F 48.2 °F 88% 29.93 in 15.0 mi South 4.6 mph - N/A Rain Light Rain Showers
6:00 AM 51.8 °F 48.2 °F 88% 29.93 in 12.0 mi Variable 2.3 mph - N/A Rain Light Rain Showers
7:00 AM 50.0 °F 48.2 °F 94% 29.92 in 15.0 mi SE 5.8 mph - N/A Rain Light Rain Showers
8:00 AM 50.0 °F 48.2 °F 94% 29.92 in 15.0 mi SE 6.9 mph - N/A Rain Light Rain Showers
8:39 AM 51.8 °F 50.0 °F 94% 29.91 in 15.0 mi SE 6.9 mph - N/A   Mostly Cloudy
9:00 AM 51.8 °F 50.0 °F 94% 29.92 in 15.0 mi ESE 5.8 mph - N/A   Mostly Cloudy
10:00 AM 51.8 °F 48.2 °F 88% 29.92 in 15.0 mi ESE 2.3 mph - N/A   Mostly Cloudy
11:00 AM 54 °F 51 °F 87% 29.91 in 19 mi ESE 6.9 mph - -   Partly Cloudy
11:00 AM 53.6 °F 51.8 °F 94% 29.91 in 20.0 mi ESE 6.9 mph - N/A   Mostly Cloudy
12:00 PM 55.4 °F 48.2 °F 77% 29.90 in 20.0 mi SE 9.2 mph - N/A   Mostly Cloudy
1:00 PM 57.2 °F 48.2 °F 72% 29.88 in 20.0 mi SSE 10.4 mph - N/A   Mostly Cloudy
2:00 PM 55.4 °F 48.2 °F 77% 29.87 in 20.0 mi ESE 9.2 mph - N/A   Mostly Cloudy
3:00 PM 55.4 °F 48.2 °F 77% 29.86 in 20.0 mi East 8.1 mph - N/A   Mostly Cloudy
4:00 PM 55.4 °F 48.2 °F 77% 29.86 in 20.0 mi ENE 6.9 mph - N/A   Mostly Cloudy
4:33 PM 53.6 °F 48.2 °F 82% 29.86 in 15.0 mi North 3.5 mph - N/A Rain Light Rain Showers
4:42 PM 53.6 °F 48.2 °F 82% 29.87 in 8.0 mi NW 3.5 mph - N/A Rain Heavy Rain Showers
4:51 PM 53.6 °F 48.2 °F 82% 29.86 in 15.0 mi Variable 2.3 mph - N/A Rain Light Rain Showers
5:00 PM 53 °F 49 °F 81% 29.86 in 19 mi ENE 3.5 mph - - Rain Light Rain Showers
5:00 PM 53.6 °F 48.2 °F 82% 29.86 in 20.0 mi ENE 4.6 mph - N/A Rain Light Rain Showers
6:00 PM 51.8 °F 50.0 °F 94% 29.86 in 20.0 mi SE 4.6 mph - N/A   Mostly Cloudy
6:19 PM 53.6 °F 50.0 °F 88% 29.86 in 20.0 mi WSW 5.8 mph - N/A Rain Light Rain Showers
7:00 PM 51.8 °F 48.2 °F 88% 29.86 in 20.0 mi SW 2.3 mph - N/A Rain Light Rain Showers
8:00 PM 50.0 °F 48.2 °F 94% 29.86 in 20.0 mi WSW 4.6 mph - N/A   Overcast
8:55 PM 51.8 °F 50.0 °F 94% 29.88 in 20.0 mi Calm Calm - N/A Rain Light Rain Showers
9:00 PM 51.8 °F 50.0 °F 94% 29.88 in 20.0 mi Variable 2.3 mph - N/A Rain Light Rain Showers
9:45 PM 51.8 °F 50.0 °F 94% 29.88 in 20.0 mi WSW 3.5 mph - N/A Rain Light Rain
10:00 PM 51.8 °F 51.8 °F 100% 29.88 in 20.0 mi West 3.5 mph - N/A Rain Light Rain
10:08 PM 51.8 °F 51.8 °F 100% 29.88 in 20.0 mi NW 2.3 mph - N/A Rain Light Rain Showers
10:40 PM 51.8 °F 50.0 °F 94% 29.88 in 20.0 mi West 5.8 mph - N/A Rain Light Rain
11:00 PM 52 °F 49 °F 85% 29.88 in 19 mi West 8.1 mph - - Rain Light Rain
11:00 PM 51.8 °F 48.2 °F 88% 29.88 in 20.0 mi West 8.1 mph - N/A Rain Light Rain
11:36 PM 51.8 °F 48.2 °F 88% 29.89 in 20.0 mi WSW 4.6 mph - N/A Rain Rain